DIAMANT DEB, 2684

Orbit data source: Space-Track

DIAMANT DEB, 2684 is space debris in LEO originally from a launch on Wed, 15 Feb 1967 UTC launched from the Hamma Guira Space Track Range (HGSTR). Debris objects in space refer to the collection of defunct objects orbiting the Earth. Examples of debris include non-operational satellites, rocket bodies, and fragments generated from explosions, collisions, or faulty payload assembly.

Loading next visibility...
Identifier
2684, 1967-014C
Orbit
LEO
Country
Flag of FRFR
Related business
Manufacturer
Unknown
Mission
Spacecraft
Bus & Motor
Unknown
Mass
Unknown
Launch date (UTC)
1967-02-15 (59 years ago)
Launch vehicle
Unknown
Launch site
Hamma Guira Space Track Range (HGSTR)
Object type
Payload
Rocket body
Debris
Shape & HBR
Unknown shape, 0.1 m
Radar Cross Section
Small (<0.1 m²)

Expand to show TLE details & history
Last TLE update: 9 hours ago

TLE from 9 hours ago
0 DIAMANT DEB
1 02684U 67014C   26072.51551016  .00004182  00000-0  10009-2 0  9996
2 02684  39.9556 132.5974 0440561 184.4204 175.2592 14.08398979927482
Epoch: 2026-03-13T12:22Z
TLE epoch observation values (Epoch: 2026-03-13T12:22:20.077Z)
Latitude
-0.00004°
Longitude
135.86377°
Altitude
1,182.366 km
Speed
7.103 km/s
True Right ascension
08h 50m 23s
True Declination
0° 00' 00"
Sunlit
Object was in full shadow at epoch
Visualization orbit readout
Latitude
Unknown
Longitude
Unknown
Altitude
Unknown
Speed
Unknown
Apparent Right ascension
Unknown
Apparent Declination
Unknown
Sunlit
N/A
Visualization observer readout
Local Sidereal Time
01:40:50
Azimuth
Unknown
Elevation
Unknown
Doppler factor
Unknown
Orbital elements
Apogee altitude
1,186.387 km
Perigee altitude
547.986 km
Semi-major axis
7,245.323 km
Eccentricity
0.04406
Inclination
39.9556°
RAAN
132.5974°
Arg. of periapsis
184.4204°
True anomaly
175.65469°
Mean anomaly
175.2592°
Eccentric anomaly
175.45905°
Mean motion
3.5193 °/min
Orbital period
102.29 mins
BSTAR
0.0010009
Loading maneuver chart data...
Computing Atmospheric mass density...
Loading historical data...
Loading historical data...
Loading historical data...
Loading historical data...
Loading historical data...
Loading historical data...
Loading historical data...

Documentation

Showing up to 5 results
|